Location: Kitchener
(43.4500°N, 80.5000°W)
Time: 01:07:56
(UTC-04:00)

Daily predictions for brighter satellites

Satellite Brightness Start Highest point End
(mag) Time Altitude Azimuth Time Altitude Azimuth Time Altitude Azimuth
CZ-4C R/B 3.6 00:05:12 54° NW 00:05:12 54° NW 00:08:06 10° NNW
H-2A R/B 3.9 00:04:42 15° WSW 00:06:45 19° W 00:10:15 10° NW
SME Rocket 3.8 00:07:11 50° ESE 00:08:20 63° ENE 00:12:43 10° N
Cosmos 1825 Rocket 4.1 00:12:07 45° ENE 00:12:07 45° ENE 00:15:46 10° NNE
Cosmos 1805 3.8 00:08:03 10° N 00:11:22 53° NE 00:11:22 53° NE
DELTA 2 DEB (DPAF) 4.4 00:13:12 55° WSW 00:13:26 56° W 00:17:51 10° NNW
USA 267 3.1 00:07:56 10° NE 00:14:30 85° SE 00:19:33 18° SW
CZ-2C R/B 3.5 00:22:49 47° ESE 00:23:46 54° ENE 00:29:11 10° N
Cosmos 2082 Rocket 2.7 00:24:51 32° SW 00:27:19 57° WNW 00:32:54 10° NNE
SeaSat 1 2.3 00:29:44 73° ESE 00:30:09 82° ENE 00:35:08 10° NNW
Cosmos 1544 4.2 00:31:46 10° NNW 00:34:23 41° NW 00:34:23 41° NW
Cosmos 1953 2.7 00:31:28 10° N 00:34:56 62° N 00:34:56 62° N
CZ-4B R/B 4.2 00:37:24 11° NE 00:37:24 11° NE 00:37:46 10° NE
Cosmos 1842 4.0 00:39:03 47° NW 00:39:03 47° NW 00:42:25 10° N
Cosmos 2360 4.1 00:33:04 10° NNW 00:38:49 85° ENE 00:39:39 67° SE
Cosmos 1934 Rocket 4.2 00:33:36 10° N 00:39:58 64° E 00:41:19 52° SE
USA 229 DEB 3.7 00:36:24 10° NW 00:43:35 89° ENE 00:45:48 49° SE
USA 229 3.7 00:36:30 10° NW 00:43:41 88° ENE 00:45:55 49° SE
Cosmos 389 Rocket 3.8 00:40:45 10° N 00:43:01 38° N 00:43:01 38° N
CZ-2C R/B 2.6 00:38:48 10° NNE 00:44:26 71° ESE 00:44:57 66° SE
USA 234 3.4 00:45:40 27° ESE 00:49:24 69° NE 00:55:53 10° NW
Cosmos 1269 Rocket 4.3 00:48:43 54° WSW 00:49:38 64° WNW 00:54:55 10° NNE
Nadezhda 3 Rocket 4.2 00:48:00 46° SW 00:49:47 64° W 00:56:08 10° N
ATLAS CENTAUR R/B 3.1 00:48:25 10° N 00:51:20 22° NE 00:51:45 21° NE
SL-16 R/B 2.8 00:47:11 10° NNW 00:52:42 49° ENE 00:54:09 40° ESE
Cosmos 1271 Rocket 4.3 00:50:12 10° NNW 00:52:54 29° WNW 00:52:54 29° WNW
Cosmos 1697 Rocket 3.5 00:48:34 10° NW 00:53:40 37° WSW 00:53:56 36° WSW
Cosmos-2242 3.4 00:52:42 10° N 00:56:30 58° NE 00:56:30 58° NE
Cosmos 494 Rocket 4.4 00:57:25 49° E 00:57:25 49° E 01:02:05 10° NNE
Orbus 7S? 4.1 00:53:06 10° NW 00:57:33 50° WNW 00:57:33 50° WNW
Cosmos 2239 Rocket 4.5 00:56:17 10° NNW 01:02:24 68° W 01:03:29 57° SW
Lacrosse 5 rocket 3.6 00:58:43 10° NNW 01:02:40 26° NNE 01:06:34 10° E
Cosmos 1821 Rocket 4.1 01:02:25 10° NNW 01:08:36 62° W 01:09:44 53° SW
Cosmos 1833 Rocket 4.3 01:10:08 16° WSW 01:13:36 28° NW 01:18:26 10° N
Lacrosse 5 3.4 01:18:10 23° E 01:18:10 23° E 01:20:45 10° ENE
Cosmos 1733 4.3 01:12:41 10° NNW 01:15:22 41° NW 01:15:22 41° NW
Cosmos 2221 4.5 01:14:51 10° NNE 01:18:02 20° ENE 01:18:30 19° E
Cosmos 1110 Rocket 3.9 01:13:03 10° NNW 01:18:19 73° WSW 01:18:21 73° WSW
Cosmos 1727 Rocket 4.0 01:17:49 56° SE 01:18:48 65° E 01:24:59 10° NNE
Cosmos 1758 Rocket 4.4 01:19:15 42° WNW 01:19:15 42° WNW 01:23:09 10° N
Cosmos 2098 Rocket 3.2 01:15:10 10° N 01:19:03 75° NE 01:19:03 75° NE
Cosmos 1331 Rocket 3.8 01:15:10 10° NNW 01:20:22 79° WSW 01:20:22 79° WSW
Cosmos 1842 Rocket 4.1 01:17:04 10° N 01:21:16 51° ENE 01:21:16 51° ENE
Cosmos 1302 Rocket 4.1 01:19:24 10° NNW 01:24:40 67° ENE 01:25:14 61° ESE
ISS -1.1 01:25:09 10° WNW 01:27:38 21° N 01:30:13 10° NE
Cosmos 1470 4.0 01:24:07 10° NNW 01:26:57 36° NW 01:26:57 36° NW
Cosmos 2251 Rocket 3.4 01:29:18 81° S 01:29:35 89° ESE 01:35:01 10° NNE
Cosmos 1605 Rocket 3.8 01:24:58 10° N 01:31:05 77° W 01:32:00 64° SSW
Landsat 5 3.8 01:34:54 68° ENE 01:34:54 68° ENE 01:39:16 10° N
BREEZE-M DEB (TANK) 3.4 01:35:05 39° WNW 01:36:08 54° N 01:45:15 10° ENE
ALOS 2 4.0 01:37:45 28° WNW 01:37:45 28° WNW 01:40:51 10° NW
Cosmos 1153 Rocket 4.4 01:31:26 10° N 01:37:40 83° E 01:38:54 60° SSE
Meteor 1-16 Rocket 3.9 01:33:33 10° NNW 01:38:55 80° W 01:39:16 75° SW
Cosmos 2360 Rocket 3.0 01:33:38 10° NNW 01:39:06 47° ENE 01:41:15 32° ESE
Cosmos 1980 Rocket 3.5 01:35:18 10° NW 01:39:36 26° W 01:39:36 26° W
Meteor 1-24 Rocket 3.8 01:44:07 62° SSE 01:45:02 73° E 01:51:04 10° NNE
Cosmos 2322 Rocket 2.2 01:42:31 10° NNW 01:48:09 63° WSW 01:48:24 62° SW
Cosmos 1707 4.1 01:50:29 32° NW 01:50:29 32° NW 01:53:19 10° N
Cosmos 2173 Rocket 4.2 01:44:43 10° N 01:50:48 61° E 01:52:25 45° SE
Cosmos 1378 4.5 01:56:57 35° NW 01:56:57 35° NW 01:59:37 10° N
USA 267 4.5 01:51:10 10° NE 01:57:08 39° NNW 02:03:06 10° W
Okean 3 Rocket 4.2 01:57:49 47° E 01:57:49 47° E 02:02:08 10° NNE
PSLV R/B 4.5 01:56:35 10° NNE 02:00:18 38° E 02:00:18 38° E
CZ-4B R/B 3.7 02:10:59 18° NW 02:10:59 18° NW 02:12:03 10° NNW
NOSS 3-1 (C) 4.1 02:03:18 10° NW 02:10:48 61° WSW 02:13:13 45° S
Cosmos 1184 Rocket 4.4 02:17:44 32° NE 02:17:44 32° NE 02:19:53 10° NNE
Meteor 2-1 Rocket 4.3 02:11:08 10° NNW 02:17:00 71° W 02:18:01 59° SSW
Cosmos 1802 Rocket 3.9 02:11:35 10° N 02:17:56 84° E 02:19:43 50° SSE
Cosmos 1459 Rocket 3.9 02:12:06 10° N 02:18:28 83° W 02:20:07 53° S
Cosmos 2219 Rocket 3.8 02:20:28 10° N 02:25:31 32° NE 02:30:33 10° ESE
Cosmos 1408 Rocket 4.2 02:26:02 42° ESE 02:26:24 43° E 02:30:33 10° NNE
Cosmos 2100 Rocket 4.0 02:22:05 10° NNW 02:28:11 65° W 02:29:31 52° SW
Cosmos 1766 Rocket 4.1 02:29:18 48° ESE 02:29:40 49° E 02:33:54 10° NNE
Cosmos 1340 Rocket 2.9 02:30:29 70° NE 02:30:29 70° NE 02:34:04 10° NNE
ATLAS CENTAUR R/B 3.4 02:27:02 10° NW 02:27:59 16° WNW 02:27:59 16° WNW
Cosmos 2061 Rocket 3.9 02:25:30 10° NNW 02:31:40 72° W 02:33:16 51° SSW
USA 234 3.8 02:32:58 37° WSW 02:32:58 37° WSW 02:38:40 10° WNW
Cosmos 2016 Rocket 4.0 02:27:59 10° N 02:34:23 87° W 02:36:28 46° S
SL-16 R/B 3.4 02:31:53 10° NW 02:36:00 25° W 02:36:00 25° W
H-2A R/B 3.1 02:33:02 10° N 02:37:01 45° WNW 02:37:06 45° WNW
Cosmos 2237 Rocket 4.3 02:32:59 10° N 02:37:31 24° NE 02:42:00 10° ESE
Cosmos 1674 2.8 02:37:48 73° NE 02:37:48 73° NE 02:41:25 10° N
NOSS 3-1 (A) 4.2 02:33:56 10° NW 02:41:20 53° WSW 02:44:04 39° SSW
ATLAS 2AS CENTAUR R/B 3.7 02:33:43 10° NNW 02:41:38 55° NE 02:49:01 10° ESE
Lacrosse 5 rocket 1.4 02:37:45 10° NW 02:42:24 78° SW 02:42:28 78° SSW
Cosmos 1300 3.8 02:47:49 10° N 02:51:27 38° ENE 02:52:25 32° ESE
Cosmos 2221 3.4 02:51:48 10° NNW 02:55:22 35° W 02:55:22 35° W
Cosmos 2237 4.1 02:50:12 10° NNW 02:55:53 73° WSW 02:57:42 44° S
Cosmos 2227 Rocket 3.9 02:53:34 16° SE 02:56:17 23° E 03:00:36 10° NE
NPP 4.0 02:51:33 10° NNE 02:56:52 57° E 02:58:49 37° SSE
Cosmos 2322 3.8 02:51:34 10° NW 02:57:02 51° WSW 02:57:53 47° SW
Cosmos 2123 Rocket 3.9 02:56:27 43° SSW 02:58:40 82° W 03:04:54 10° N
Lacrosse 5 2.3 02:57:21 36° W 02:59:10 56° NW 03:04:11 10° NE
Helios 1A Rocket 3.0 02:55:28 10° N 02:59:36 64° WNW 02:59:57 60° WSW
ARIANE 5 R/B 4.2 02:56:36 10° NE 03:00:46 25° E 03:03:43 15° SE
ADEOS Rocket 4.3 02:55:04 10° NNE 03:02:01 44° E 03:07:20 19° SSE
ISS -1.2 03:02:14 10° NW 03:04:56 22° NNE 03:07:35 10° ENE
Cosmos 407 Rocket 3.6 03:04:00 44° S 03:05:33 68° ESE 03:10:41 10° NNE
COSMOS 2428 2.6 03:03:32 10° NNW 03:09:17 76° WSW 03:12:00 33° SSE
Cosmos 1726 2.0 03:05:56 10° N 03:09:44 83° E 03:10:06 71° SSE
Cosmos 2084 Rocket 4.1 03:09:39 36° WNW 03:10:27 41° NW 03:14:12 10° NNE
Cosmos 2228 Rocket 3.1 03:06:59 10° N 03:11:28 76° E 03:12:59 41° SSE
Cosmos 2219 3.1 03:10:48 43° SSW 03:12:45 89° WNW 03:18:24 10° NNE
Cosmos 2058 4.2 03:14:39 23° SE 03:16:24 33° E 03:20:07 10° NNE
Cosmos 676 Rocket 4.4 03:14:54 34° SSE 03:17:01 59° ESE 03:22:13 10° NNE
Cosmos 2233 Rocket 4.0 03:11:35 10° N 03:17:57 89° E 03:21:41 27° S
Cosmos 1190 Rocket 4.0 03:18:30 42° SSW 03:20:20 80° WNW 03:25:41 10° NNE
Cosmos 2333 4.1 03:15:27 10° NNW 03:21:10 68° WSW 03:24:03 30° S
Cosmos 2360 Rocket 3.2 03:18:10 10° NW 03:22:49 27° WSW 03:23:00 27° WSW
Cosmos 1242 Rocket 2.8 03:20:48 10° NNW 03:24:02 50° W 03:24:02 50° W
Cosmos 1725 Rocket 4.3 03:19:41 10° NNW 03:25:46 51° W 03:28:17 33° SW
Cosmos 1328 Rocket 3.5 03:21:35 10° NNW 03:26:02 71° W 03:27:16 45° SSW
SL-08 R/B 3.4 03:31:18 36° SSW 03:33:10 62° W 03:38:06 10° NNW
Cosmos 1455 4.1 03:31:56 10° NNE 03:35:21 28° ENE 03:38:44 10° SE
Cosmos 1356 Rocket 4.0 03:35:12 36° W 03:35:52 39° WNW 03:39:42 10° N
Cosmos 1703 4.2 03:35:50 23° SSE 03:37:47 42° E 03:41:30 10° NNE
Meteor 2-10 3.9 03:37:06 10° NNW 03:42:09 70° W 03:44:59 27° S
Cosmos 2333 Rocket 2.1 03:37:03 10° NNW 03:42:48 85° WSW 03:48:28 10° SSE
Resurs 1-4 Rocket 2.3 03:37:59 10° NNE 03:43:17 66° ESE 03:46:41 22° S
Cosmos 1151 Rocket 2.9 03:39:25 10° N 03:43:45 83° W 03:45:58 28° S
Cosmos 1464 Rocket 4.3 03:38:09 10° N 03:44:18 65° E 03:50:22 10° SSE
SL-14 R/B 3.5 03:43:13 41° SW 03:44:18 55° W 03:48:19 10° N
IRS-1D 3.8 03:39:32 10° NNE 03:44:54 69° ESE 03:48:18 23° S
AQUA 3.9 03:40:23 10° N 03:45:05 63° WNW 03:47:09 32° SW
Cosmos 2151 2.9 03:43:27 34° S 03:45:12 87° E 03:49:27 10° N
CZ-2D R/B 2.2 03:42:16 10° NNE 03:47:29 70° ESE 03:50:51 22° S
UNKNOWN OBJECT B 4.2 03:49:48 10° NNE 03:53:34 36° E 03:56:37 14° SSE
SL-16 R/B 2.5 03:52:25 14° S 03:57:47 71° WSW 04:03:58 10° NNW
UNK 3.7 03:54:54 21° S 03:57:53 70° WSW 04:02:30 10° NNW
ADEOS 3.6 03:53:12 10° NNE 03:58:28 82° ESE 04:02:04 21° S
Cosmos 1980 3.6 03:56:17 10° NNW 04:01:59 79° WSW 04:07:39 10° SSE
SL-8 R/B 3.6 03:59:49 27° WSW 04:02:27 83° SSE 04:07:16 10° ENE
Cosmos 2297 Rocket 2.5 03:58:57 20° S 04:02:54 62° ESE 04:08:29 10° NNE
IRS-1C 4.5 04:00:12 10° N 04:05:22 51° WNW 04:08:30 23° SW
CZ-3A R/B 3.6 04:04:06 10° NNW 04:06:16 23° NE 04:11:09 10° E
ERBS 2.2 04:07:24 34° SW 04:08:44 88° SE 04:12:07 10° NE
Cosmos 1500 Rocket 4.2 04:07:23 26° SW 04:09:19 40° WNW 04:13:30 10° N
Cosmos 2219 Rocket 2.6 04:04:15 10° NW 04:09:35 42° WSW 04:13:56 15° S
ATLAS 3B CENTAUR R/B 4.0 04:05:21 17° WSW 04:12:08 27° SSW 04:17:11 10° SE
COBE Rocket 3.9 04:08:25 10° N 04:13:04 62° WNW 04:16:02 21° SSW
NOSS 0 Rocket 4.1 04:09:45 10° NW 04:15:43 51° WSW 04:21:41 10° S
Cosmos 1626 2.2 04:15:14 25° SSW 04:17:13 61° W 04:20:56 10° N
Cosmos 1850 Rocket 4.1 04:13:49 17° SSW 04:17:49 78° ESE 04:23:01 10° NNE
Cosmos 1356 3.5 04:15:42 20° S 04:17:59 81° E 04:21:30 10° NNE
Aureole 2 Rocket 2.8 04:14:36 10° NNW 04:18:31 60° WSW 04:22:36 10° S
Okean O Rocket 4.1 04:16:29 10° NE 04:19:29 18° E 04:22:27 10° SE
SL-16 R/B 2.8 04:14:09 10° NNW 04:19:47 60° ENE 04:25:23 10° SE
GPS 2-04 Rocket1 3.8 04:19:42 23° SW 04:21:08 28° S 04:24:47 10° ESE
Cosmos 1741 Rocket 4.1 04:17:21 17° SSW 04:21:34 81° ESE 04:26:55 10° NNE
Cosmos 2237 Rocket 2.2 04:16:26 10° NNW 04:21:59 59° WSW 04:27:28 10° S
Cosmos 1805 Rocket 3.6 04:18:52 15° S 04:22:36 85° E 04:27:04 10° N
Cosmos 1140 Rocket 3.8 04:20:46 20° SW 04:24:18 56° WNW 04:29:27 10° NNE
CZ-3A R/B 4.3 04:21:54 12° SSW 04:26:48 23° SE 04:44:21 10° ESE
Cosmos 1570 Rocket 4.0 04:26:07 10° NNW 04:31:29 75° WSW 04:36:48 10° SSE
NOSS 2-1 (D) 3.4 04:29:44 20° SW 04:32:18 69° NW 04:36:38 10° NNE
NOSS 2-1 (C) 3.4 04:29:53 20° SW 04:32:28 71° NW 04:36:47 10° NNE
ATLAS 2AS CENTAUR R/B 3.3 04:25:12 10° NW 04:32:28 40° WSW 04:39:13 10° S
Cosmos 614 Rocket 4.2 04:28:51 17° SW 04:32:44 58° WNW 04:37:55 10° NNE
Cosmos 2034 Rocket 4.1 04:33:26 10° NNW 04:39:43 66° W 04:46:00 10° S
Cosmos 2227 Rocket 2.5 04:35:24 16° SW 04:39:55 54° WNW 04:45:29 10° NNE
ARIANE 5 R/B 3.1 04:35:14 10° N 04:40:02 42° WNW 04:44:04 14° SW
BREEZE-M DEB (TANK) 3.5 04:32:28 10° WSW 04:41:10 79° NNW 04:44:26 10° ENE
ISS -3.6 04:38:32 10° NW 04:41:50 74° NNE 04:45:05 10° ESE
Lacrosse 5 4.0 04:39:15 10° WNW 04:43:06 21° NNW 04:46:57 10° NNE
USA 161 0.4 04:42:56 11° S 04:44:52 68° W 04:46:52 10° NNW
ADEOS Rocket 4.1 04:40:41 10° N 04:47:22 42° WNW 04:54:18 11° SW
Tsikada Rocket 4.1 04:47:06 10° SSW 04:53:26 73° W 04:59:52 10° N
Cosmos 1869 3.3 04:49:28 10° NNW 04:53:29 63° W 04:57:26 10° S
Cosmos 1633 Rocket 3.0 04:49:33 10° S 04:53:56 80° W 04:58:19 10° N
NOSS 2-1 (E) 4.0 04:51:58 13° WSW 04:55:18 47° NW 04:59:39 10° NNE
SL-24 R/B 3.8 04:54:06 10° N 04:58:15 82° W 05:01:59 10° SSW
Sich 1 3.2 04:56:58 10° SSW 05:01:18 56° W 05:05:38 10° N
DELTA 2 R/B (1) 4.3 05:02:10 10° SW 05:07:19 40° SSE 05:12:28 10° E
Cosmos 2082 4.4 05:02:10 10° SW 05:07:24 39° WNW 05:12:41 10° NNE
Cosmos 2242 Rocket 3.6 05:05:02 10° NNW 05:09:30 75° W 05:13:59 10° S
Cosmos 1455 3.7 05:08:01 10° NW 05:10:50 20° W 05:13:40 10° SW
PSLV R/B 3.9 05:09:24 10° NNE 05:13:30 87° E 05:17:29 10° SSW
CZ-2D R/B 4.4 05:11:14 10° N 05:14:46 31° WNW 05:18:21 10° SW
Lacrosse 4 Rocket 1.6 05:14:11 10° SSW 05:18:15 70° ESE 05:22:27 10° NNE
CZ-3 R/B 3.9 05:03:11 10° W 05:35:02 42° SSW 05:43:30 10° SE
